SPD131 MPTO-KTPA

Flight info

Callsign SPD131
Flight time N/A
Altitude 37000
Route EGETA3A EGETA DCT TIMRO DCT KASOR/N0489F360 DCT MLY UA301 IMADI DCT EPSIM UM779 ZEUSS Y217 OCTAL Y280 JAYMC BLFRG3
Aircraft A346/H-SDE2E3FGHIJ3J4J5M1RWXY/LB1D1

Departure

Time N/A
Airport Tocumen International Airport (MPTO)

Arrival

Time 2026-05-06 03:03
Airport Tampa International Airport (KTPA)
Time Latitude Longitude Altitude Speed Heading
2026-05-06 00:26 11.55363 -78.73987 34600 ft 477 kts
2026-05-06 00:26 11.58598 -78.73463 34818 ft 477 kts
2026-05-06 00:26 11.61876 -78.72932 35031 ft 477 kts
2026-05-06 00:27 11.65159 -78.72400 35229 ft 477 kts
2026-05-06 00:27 11.68437 -78.71868 35408 ft 478 kts
2026-05-06 00:27 11.71732 -78.71333 35557 ft 479 kts
2026-05-06 00:27 11.75023 -78.70798 35728 ft 479 kts
2026-05-06 00:28 11.78319 -78.70211 35881 ft 481 kts
2026-05-06 00:28 11.81543 -78.69466 36037 ft 482 kts 13°
2026-05-06 00:28 11.84784 -78.68538 36191 ft 483 kts 15°
2026-05-06 00:28 11.88006 -78.67546 36338 ft 484 kts 15°
2026-05-06 00:29 11.91242 -78.66537 36489 ft 485 kts 15°
2026-05-06 00:29 11.94472 -78.65529 36642 ft 486 kts 15°
2026-05-06 00:29 11.97708 -78.64520 36807 ft 487 kts 15°
2026-05-06 00:29 12.00955 -78.63510 36914 ft 487 kts 15°
2026-05-06 00:30 12.04199 -78.62501 36911 ft 488 kts 15°
2026-05-06 00:30 12.10661 -78.60493 36916 ft 488 kts 15°
2026-05-06 00:31 12.17159 -78.58473 36917 ft 488 kts 15°
2026-05-06 00:31 12.23657 -78.56454 36920 ft 488 kts 15°
2026-05-06 00:32 12.30152 -78.54434 36921 ft 488 kts 15°
2026-05-06 00:32 12.36651 -78.52413 36923 ft 488 kts 15°
2026-05-06 00:33 12.43102 -78.50404 36925 ft 488 kts 15°
2026-05-06 00:33 12.49597 -78.48381 36927 ft 487 kts 15°
2026-05-06 00:34 12.56086 -78.46359 36926 ft 487 kts 15°
2026-05-06 00:34 12.62575 -78.44336 36927 ft 487 kts 15°
2026-05-06 00:35 12.69054 -78.42315 36926 ft 486 kts 15°
2026-05-06 00:35 12.75531 -78.40293 36929 ft 486 kts 15°
2026-05-06 00:36 12.82001 -78.38273 36929 ft 486 kts 15°
2026-05-06 00:36 12.88440 -78.36262 36931 ft 486 kts 15°
2026-05-06 00:37 12.94925 -78.34234 36932 ft 486 kts 15°
2026-05-06 00:37 13.01399 -78.32209 36935 ft 486 kts 15°
2026-05-06 00:38 13.07871 -78.30182 36934 ft 485 kts 15°
2026-05-06 00:38 13.14298 -78.28169 36938 ft 485 kts 15°
2026-05-06 00:39 13.20759 -78.26145 36937 ft 485 kts 15°
2026-05-06 00:39 13.27234 -78.24115 36938 ft 486 kts 15°
2026-05-06 00:40 13.33704 -78.22085 36937 ft 486 kts 15°
2026-05-06 00:40 13.40174 -78.20054 36940 ft 486 kts 15°
2026-05-06 00:41 13.46646 -78.18022 36942 ft 486 kts 15°
2026-05-06 00:41 13.53070 -78.16004 36941 ft 486 kts 15°
2026-05-06 00:42 13.59543 -78.13969 36941 ft 486 kts 15°
2026-05-06 00:42 13.66014 -78.11934 36942 ft 486 kts 15°
2026-05-06 00:43 13.72481 -78.09898 36947 ft 486 kts 15°
2026-05-06 00:43 13.78952 -78.07860 36946 ft 486 kts 15°
2026-05-06 00:44 13.85381 -78.05835 36950 ft 486 kts 15°
2026-05-06 00:44 13.91854 -78.03794 36951 ft 486 kts 15°
2026-05-06 00:45 13.98331 -78.01751 36953 ft 485 kts 15°
2026-05-06 00:45 14.04792 -77.99713 36950 ft 485 kts 15°
2026-05-06 00:46 14.11197 -77.97690 36951 ft 484 kts 15°
2026-05-06 00:46 14.17643 -77.95654 36950 ft 484 kts 15°
2026-05-06 00:47 14.24081 -77.93617 36950 ft 483 kts 15°
2026-05-06 00:47 14.30513 -77.91583 36956 ft 483 kts 15°
2026-05-06 00:48 14.36949 -77.89546 36956 ft 483 kts 15°
2026-05-06 00:48 14.43372 -77.87511 36957 ft 483 kts 15°
2026-05-06 00:49 14.49765 -77.85485 36958 ft 483 kts 15°
2026-05-06 00:49 14.56206 -77.83443 36959 ft 483 kts 15°
2026-05-06 00:50 14.62645 -77.81399 36959 ft 483 kts 15°
2026-05-06 00:50 14.69080 -77.79356 36961 ft 483 kts 15°
2026-05-06 00:51 14.75503 -77.77316 36964 ft 483 kts 15°
2026-05-06 00:51 14.81939 -77.75270 36966 ft 483 kts 15°
2026-05-06 00:52 14.88330 -77.73237 36964 ft 483 kts 15°
2026-05-06 00:52 14.94762 -77.71190 36970 ft 483 kts 15°
2026-05-06 00:53 15.01195 -77.69145 36967 ft 483 kts 14°
2026-05-06 00:53 15.07637 -77.67153 36968 ft 483 kts 14°
2026-05-06 00:54 15.14080 -77.65170 36966 ft 482 kts 14°
2026-05-06 00:54 15.20473 -77.63198 36971 ft 482 kts 14°
2026-05-06 00:55 15.26890 -77.61215 36974 ft 481 kts 14°
2026-05-06 00:55 15.33304 -77.59232 36972 ft 481 kts 14°
2026-05-06 00:56 15.39712 -77.57248 36974 ft 480 kts 14°
2026-05-06 00:56 15.46120 -77.55264 36976 ft 480 kts 14°
2026-05-06 00:57 15.52520 -77.53281 36980 ft 480 kts 14°
2026-05-06 00:57 15.58920 -77.51296 36977 ft 480 kts 14°
2026-05-06 00:58 15.65325 -77.49309 36979 ft 479 kts 14°
2026-05-06 00:58 15.71673 -77.47337 36983 ft 479 kts 14°
2026-05-06 00:59 15.78067 -77.45350 36985 ft 479 kts 14°
2026-05-06 00:59 15.84450 -77.43366 36986 ft 479 kts 14°
2026-05-06 01:00 15.90837 -77.41378 36989 ft 478 kts 14°
2026-05-06 01:00 15.97224 -77.39390 36990 ft 478 kts 14°
2026-05-06 01:01 16.03560 -77.37416 36989 ft 478 kts 14°
2026-05-06 01:01 16.09934 -77.35428 36993 ft 478 kts 14°
2026-05-06 01:02 16.16307 -77.33440 36993 ft 478 kts 14°
2026-05-06 01:02 16.22676 -77.31453 36992 ft 477 kts 14°
2026-05-06 01:03 16.29049 -77.29462 36996 ft 477 kts 14°
2026-05-06 01:03 16.35393 -77.27479 36997 ft 476 kts 14°
2026-05-06 01:04 16.41750 -77.25490 36995 ft 476 kts 14°
2026-05-06 01:04 16.48056 -77.23516 36998 ft 475 kts 14°
2026-05-06 01:05 16.54390 -77.21532 37001 ft 475 kts 14°
2026-05-06 01:05 16.60720 -77.19549 37006 ft 475 kts 14°
2026-05-06 01:06 16.67051 -77.17564 36997 ft 475 kts 14°
2026-05-06 01:06 16.73353 -77.15585 37001 ft 475 kts 14°
2026-05-06 01:07 16.79670 -77.13601 37002 ft 474 kts 14°
2026-05-06 01:07 16.86000 -77.11611 37001 ft 474 kts 14°
2026-05-06 01:08 16.92319 -77.09623 37002 ft 474 kts 14°
2026-05-06 01:08 16.98638 -77.07634 37009 ft 474 kts 14°
2026-05-06 01:09 17.04961 -77.05641 37007 ft 474 kts 14°
2026-05-06 01:09 17.11259 -77.03657 37248 ft 475 kts 14°
2026-05-06 01:09 17.14422 -77.02658 37535 ft 473 kts 14°
2026-05-06 01:10 17.17571 -77.01663 37796 ft 472 kts 14°
2026-05-06 01:10 17.20716 -77.00669 37993 ft 472 kts 14°
2026-05-06 01:10 17.23874 -76.99673 38160 ft 472 kts 14°
2026-05-06 01:10 17.27019 -76.98679 38312 ft 472 kts 14°
2026-05-06 01:11 17.30133 -76.97696 38480 ft 472 kts 14°
2026-05-06 01:11 17.33277 -76.96702 38665 ft 471 kts 14°
2026-05-06 01:11 17.36427 -76.95707 38800 ft 471 kts 14°
2026-05-06 01:11 17.39566 -76.94714 38928 ft 471 kts 13°
2026-05-06 01:12 17.42700 -76.93722 39052 ft 470 kts 13°
2026-05-06 01:12 17.45832 -76.92731 39171 ft 470 kts 13°
2026-05-06 01:12 17.48971 -76.91737 39284 ft 470 kts 13°
2026-05-06 01:12 17.52100 -76.90746 39392 ft 469 kts 13°
2026-05-06 01:13 17.55181 -76.89770 39499 ft 469 kts 13°
2026-05-06 01:13 17.58346 -76.88767 39600 ft 469 kts 13°
2026-05-06 01:13 17.60418 -76.88110 39667 ft 469 kts 13°
2026-05-06 01:13 17.64548 -76.86801 39803 ft 468 kts 13°
2026-05-06 01:14 17.70779 -76.84824 39976 ft 468 kts 13°
2026-05-06 01:14 17.75982 -76.83173 40010 ft 469 kts 13°
2026-05-06 01:15 17.82222 -76.81190 40021 ft 468 kts 13°
2026-05-06 01:15 17.88558 -76.79930 40023 ft 461 kts
2026-05-06 01:16 17.94942 -76.80142 40021 ft 456 kts 349°
2026-05-06 01:16 18.01020 -76.81742 40021 ft 451 kts 337°
2026-05-06 01:17 18.06756 -76.84389 40023 ft 450 kts 333°
2026-05-06 01:17 18.12434 -76.87170 40017 ft 449 kts 333°
2026-05-06 01:18 18.18115 -76.89947 40021 ft 449 kts 333°
2026-05-06 01:18 18.23780 -76.92712 40015 ft 448 kts 334°
2026-05-06 01:19 18.29414 -76.95460 40017 ft 448 kts 334°
2026-05-06 01:19 18.35066 -76.98219 40017 ft 447 kts 334°
2026-05-06 01:20 18.40716 -77.00977 40018 ft 447 kts 334°
2026-05-06 01:20 18.46359 -77.03735 40023 ft 447 kts 334°
2026-05-06 01:21 18.52003 -77.06495 40021 ft 447 kts 334°
2026-05-06 01:21 18.57608 -77.09237 40019 ft 447 kts 334°
2026-05-06 01:22 18.63247 -77.12000 40021 ft 447 kts 334°
2026-05-06 01:22 18.68889 -77.14765 40020 ft 447 kts 334°
2026-05-06 01:23 18.74527 -77.17530 40020 ft 446 kts 334°
2026-05-06 01:23 18.80155 -77.20293 40020 ft 446 kts 334°
2026-05-06 01:24 18.85801 -77.23066 40022 ft 447 kts 334°
2026-05-06 01:24 18.91364 -77.25876 40021 ft 446 kts 332°
2026-05-06 01:25 18.96727 -77.29201 40021 ft 446 kts 326°
2026-05-06 01:25 19.01741 -77.33068 40022 ft 446 kts 321°
2026-05-06 01:26 19.06570 -77.37213 40025 ft 447 kts 321°
2026-05-06 01:26 19.11392 -77.41374 40024 ft 447 kts 321°
2026-05-06 01:27 19.16186 -77.45510 40025 ft 447 kts 321°
2026-05-06 01:27 19.21010 -77.49675 40025 ft 447 kts 321°
2026-05-06 01:28 19.25831 -77.53839 40025 ft 447 kts 321°
2026-05-06 01:28 19.30658 -77.58011 40027 ft 447 kts 321°
2026-05-06 01:29 19.35481 -77.62183 40025 ft 447 kts 321°
2026-05-06 01:29 19.40305 -77.66359 40021 ft 447 kts 321°
2026-05-06 01:30 19.45130 -77.70540 40024 ft 447 kts 321°
2026-05-06 01:30 19.49945 -77.74716 40021 ft 447 kts 321°
2026-05-06 01:31 19.54766 -77.78899 40026 ft 447 kts 321°
2026-05-06 01:31 19.59559 -77.83062 40029 ft 447 kts 321°
2026-05-06 01:32 19.64378 -77.87251 40031 ft 447 kts 321°
2026-05-06 01:32 19.69184 -77.91432 40030 ft 446 kts 321°
2026-05-06 01:33 19.74009 -77.95585 40030 ft 446 kts 324°
2026-05-06 01:33 19.79220 -77.99144 40028 ft 445 kts 332°
2026-05-06 01:34 19.84849 -78.01842 40031 ft 444 kts 340°
2026-05-06 01:34 19.90752 -78.03623 40039 ft 444 kts 348°
2026-05-06 01:35 19.96836 -78.04768 40041 ft 443 kts 349°
2026-05-06 01:35 20.02920 -78.05860 40037 ft 443 kts 349°
2026-05-06 01:36 20.08993 -78.06952 40034 ft 442 kts 349°
2026-05-06 01:36 20.15058 -78.08047 40040 ft 441 kts 349°
2026-05-06 01:37 20.21072 -78.09134 40041 ft 441 kts 349°
2026-05-06 01:37 20.27113 -78.10226 40038 ft 440 kts 349°
2026-05-06 01:38 20.33176 -78.11324 40042 ft 440 kts 349°
2026-05-06 01:38 20.39208 -78.12417 40044 ft 439 kts 349°
2026-05-06 01:39 20.45231 -78.13510 40046 ft 439 kts 349°
2026-05-06 01:39 20.51223 -78.14598 40046 ft 438 kts 349°
2026-05-06 01:40 20.57235 -78.15690 40047 ft 438 kts 349°
2026-05-06 01:40 20.63249 -78.16783 40050 ft 438 kts 349°
2026-05-06 01:41 20.69252 -78.17876 40051 ft 437 kts 349°
2026-05-06 01:41 20.75255 -78.18969 40051 ft 436 kts 348°
2026-05-06 01:42 20.81200 -78.20052 40056 ft 436 kts 348°
2026-05-06 01:42 20.87177 -78.21142 40054 ft 435 kts 348°
2026-05-06 01:43 20.93139 -78.22231 40057 ft 434 kts 348°
2026-05-06 01:43 20.99093 -78.23319 40054 ft 433 kts 348°
2026-05-06 01:44 21.05039 -78.24406 40058 ft 433 kts 348°
2026-05-06 01:44 21.10977 -78.25493 40059 ft 432 kts 348°
2026-05-06 01:45 21.16860 -78.26571 40059 ft 432 kts 348°
2026-05-06 01:45 21.22791 -78.27658 40059 ft 431 kts 348°
2026-05-06 01:46 21.28696 -78.28743 40063 ft 430 kts 348°
2026-05-06 01:46 21.34604 -78.29829 40059 ft 430 kts 348°
2026-05-06 01:47 21.40501 -78.30914 40069 ft 429 kts 348°
2026-05-06 01:47 21.46345 -78.31990 40063 ft 429 kts 348°
2026-05-06 01:48 21.52229 -78.33075 40074 ft 428 kts 348°
2026-05-06 01:48 21.58107 -78.34159 40067 ft 428 kts 348°
2026-05-06 01:49 21.63984 -78.35244 40071 ft 428 kts 348°
2026-05-06 01:49 21.69846 -78.36327 40069 ft 428 kts 348°
2026-05-06 01:50 21.75710 -78.37411 40065 ft 427 kts 347°
2026-05-06 01:50 21.81577 -78.38497 40065 ft 427 kts 347°
2026-05-06 01:51 21.86969 -78.39495 40068 ft 427 kts 347°
2026-05-06 01:51 21.92825 -78.40581 40071 ft 427 kts 347°
2026-05-06 01:52 21.98676 -78.41666 40066 ft 426 kts 347°
2026-05-06 01:52 22.04520 -78.42751 40068 ft 426 kts 347°
2026-05-06 01:53 22.10362 -78.43837 40064 ft 426 kts 347°
2026-05-06 01:53 22.16208 -78.44924 40066 ft 425 kts 347°
2026-05-06 01:54 22.22031 -78.46008 40066 ft 424 kts 347°
2026-05-06 01:54 22.27807 -78.47084 40065 ft 423 kts 347°
2026-05-06 01:55 22.33619 -78.48168 40064 ft 423 kts 347°
2026-05-06 01:55 22.39417 -78.49250 40065 ft 422 kts 347°
2026-05-06 01:56 22.45209 -78.50332 40054 ft 421 kts 347°
2026-05-06 01:56 22.50950 -78.51405 40056 ft 420 kts 347°
2026-05-06 01:57 22.56716 -78.52483 40054 ft 420 kts 347°
2026-05-06 01:57 22.62483 -78.53561 40060 ft 419 kts 347°
2026-05-06 01:58 22.68228 -78.54637 40057 ft 419 kts 347°
2026-05-06 01:58 22.73973 -78.55714 40064 ft 419 kts 347°
2026-05-06 01:59 22.79680 -78.56784 40065 ft 418 kts 347°
2026-05-06 01:59 22.85420 -78.57861 40057 ft 418 kts 347°
2026-05-06 02:00 22.91145 -78.58937 40056 ft 418 kts 347°
2026-05-06 02:00 22.96871 -78.60014 40058 ft 417 kts 347°
2026-05-06 02:01 23.02594 -78.61091 40055 ft 417 kts 347°
2026-05-06 02:01 23.08315 -78.62169 40061 ft 417 kts 347°
2026-05-06 02:02 23.14032 -78.63248 40058 ft 416 kts 347°
2026-05-06 02:02 23.19747 -78.64327 40060 ft 416 kts 347°
2026-05-06 02:03 23.25458 -78.65406 40063 ft 416 kts 347°
2026-05-06 02:03 23.31120 -78.66477 40061 ft 416 kts 347°
2026-05-06 02:04 23.36815 -78.67555 40059 ft 415 kts 347°
2026-05-06 02:04 23.42509 -78.68633 40056 ft 415 kts 347°
2026-05-06 02:05 23.48197 -78.69712 40056 ft 414 kts 347°
2026-05-06 02:05 23.53876 -78.70790 40055 ft 414 kts 347°
2026-05-06 02:06 23.59561 -78.71869 40056 ft 414 kts 347°
2026-05-06 02:06 23.65239 -78.72949 40056 ft 414 kts 347°
2026-05-06 02:07 23.70917 -78.74029 40055 ft 414 kts 347°
2026-05-06 02:07 23.76561 -78.75105 40059 ft 413 kts 347°
2026-05-06 02:08 23.82233 -78.76186 40053 ft 413 kts 347°
2026-05-06 02:08 23.87895 -78.77266 40058 ft 413 kts 347°
2026-05-06 02:09 23.93519 -78.78530 40060 ft 410 kts 342°
2026-05-06 02:09 23.98929 -78.80325 40058 ft 408 kts 338°
2026-05-06 02:10 24.04177 -78.82665 40058 ft 406 kts 333°
2026-05-06 02:10 24.09196 -78.85524 40055 ft 405 kts 329°
2026-05-06 02:11 24.14076 -78.88635 40053 ft 405 kts 329°
2026-05-06 02:11 24.18953 -78.91764 40060 ft 405 kts 329°
2026-05-06 02:12 24.23783 -78.94870 40059 ft 405 kts 329°
2026-05-06 02:12 24.28640 -78.97998 40058 ft 404 kts 329°
2026-05-06 02:13 24.33493 -79.01127 40057 ft 404 kts 329°
2026-05-06 02:13 24.38342 -79.04257 40056 ft 404 kts 329°
2026-05-06 02:14 24.43184 -79.07384 40059 ft 403 kts 328°
2026-05-06 02:14 24.48018 -79.10510 40063 ft 403 kts 328°
2026-05-06 02:15 24.57344 -79.16549 40065 ft 403 kts 328°
2026-05-06 02:16 24.62165 -79.19674 40062 ft 402 kts 328°
2026-05-06 02:16 24.66986 -79.22803 40058 ft 402 kts 328°
2026-05-06 02:17 24.71782 -79.25917 40058 ft 402 kts 328°
2026-05-06 02:17 24.76600 -79.29050 40054 ft 402 kts 328°
2026-05-06 02:18 24.81413 -79.32181 40056 ft 401 kts 328°
2026-05-06 02:18 24.86227 -79.35317 40061 ft 401 kts 328°
2026-05-06 02:19 24.91044 -79.38457 40060 ft 401 kts 328°
2026-05-06 02:19 24.95848 -79.41591 40062 ft 401 kts 328°
2026-05-06 02:20 25.03027 -79.46281 40059 ft 401 kts 328°
2026-05-06 02:21 25.07822 -79.49416 40065 ft 400 kts 328°
2026-05-06 02:21 25.12622 -79.52557 40066 ft 400 kts 328°
2026-05-06 02:22 25.17414 -79.55697 40063 ft 400 kts 328°
2026-05-06 02:22 25.22199 -79.58835 40070 ft 399 kts 328°
2026-05-06 02:23 25.26948 -79.61952 40064 ft 399 kts 328°
2026-05-06 02:23 25.31727 -79.65092 40064 ft 399 kts 328°
2026-05-06 02:24 25.36502 -79.68232 40059 ft 399 kts 328°
2026-05-06 02:24 25.41277 -79.71376 40068 ft 399 kts 328°
2026-05-06 02:25 25.46025 -79.74505 40063 ft 398 kts 328°
2026-05-06 02:25 25.50791 -79.77648 40063 ft 398 kts 328°
2026-05-06 02:26 25.55560 -79.80795 40075 ft 398 kts 328°
2026-05-06 02:26 25.60320 -79.83940 40064 ft 398 kts 328°
2026-05-06 02:27 25.65075 -79.87084 40065 ft 398 kts 328°
2026-05-06 02:27 25.69824 -79.90228 40066 ft 397 kts 327°
2026-05-06 02:28 25.74572 -79.93374 40066 ft 397 kts 327°
2026-05-06 02:28 25.79301 -79.96511 40066 ft 397 kts 327°
2026-05-06 02:29 25.84050 -79.99664 40069 ft 397 kts 327°
2026-05-06 02:29 25.88788 -80.02812 40060 ft 397 kts 327°
2026-05-06 02:30 25.93529 -80.05965 40059 ft 397 kts 327°
2026-05-06 02:30 25.98234 -80.09098 40055 ft 396 kts 327°
2026-05-06 02:31 26.02967 -80.12253 40057 ft 396 kts 327°
2026-05-06 02:31 26.07642 -80.15484 40056 ft 395 kts 324°
2026-05-06 02:32 26.11929 -80.19306 40056 ft 394 kts 317°
2026-05-06 02:32 26.15715 -80.23729 40057 ft 395 kts 311°
2026-05-06 02:33 26.18943 -80.28694 40056 ft 396 kts 304°
2026-05-06 02:33 26.19880 -80.30449 40057 ft 397 kts 302°
2026-05-06 02:34 26.24298 -80.39464 40053 ft 398 kts 301°
2026-05-06 02:34 26.26940 -80.44913 40056 ft 399 kts 301°
2026-05-06 02:35 26.29572 -80.50360 40058 ft 399 kts 301°
2026-05-06 02:35 26.32189 -80.55787 40058 ft 399 kts 301°
2026-05-06 02:36 26.34823 -80.61258 40054 ft 399 kts 301°
2026-05-06 02:36 26.37453 -80.66729 40055 ft 400 kts 301°
2026-05-06 02:37 26.40089 -80.72218 39757 ft 399 kts 301°
2026-05-06 02:37 26.41384 -80.74919 39514 ft 397 kts 301°
2026-05-06 02:37 26.42690 -80.77643 39236 ft 395 kts 301°
2026-05-06 02:37 26.43982 -80.80340 38874 ft 394 kts 301°
2026-05-06 02:38 26.45279 -80.83049 38358 ft 395 kts 301°
2026-05-06 02:38 26.46574 -80.85755 37782 ft 395 kts 301°
2026-05-06 02:38 26.47868 -80.88460 37228 ft 395 kts 301°
2026-05-06 02:38 26.49166 -80.91175 36662 ft 395 kts 301°
2026-05-06 02:39 26.50462 -80.93887 36059 ft 396 kts 301°
2026-05-06 02:39 26.51760 -80.96608 35474 ft 396 kts 301°
2026-05-06 02:39 26.53043 -80.99297 34892 ft 397 kts 301°
2026-05-06 02:39 26.54363 -81.02066 34305 ft 399 kts 301°
2026-05-06 02:40 26.55656 -81.04779 33668 ft 400 kts 301°
2026-05-06 02:40 26.56967 -81.07532 33049 ft 401 kts 300°
2026-05-06 02:40 26.58281 -81.10294 32442 ft 402 kts 300°
2026-05-06 02:40 26.59597 -81.13063 31887 ft 402 kts 300°
2026-05-06 02:41 26.60913 -81.15826 31327 ft 402 kts 301°
2026-05-06 02:41 26.61825 -81.17640 30929 ft 403 kts 302°
2026-05-06 02:41 26.63804 -81.21208 30110 ft 405 kts 305°
2026-05-06 02:41 26.64859 -81.22940 29619 ft 407 kts 306°
2026-05-06 02:42 26.66544 -81.25501 28896 ft 409 kts 308°
2026-05-06 02:42 26.68905 -81.28827 27912 ft 412 kts 309°
2026-05-06 02:42 26.70694 -81.31319 27280 ft 408 kts 309°
2026-05-06 02:42 26.71890 -81.32985 26905 ft 405 kts 309°
2026-05-06 02:43 26.73656 -81.35442 26356 ft 403 kts 309°
2026-05-06 02:43 26.75388 -81.37852 25868 ft 401 kts 309°
2026-05-06 02:43 26.77131 -81.40278 25336 ft 400 kts 309°
2026-05-06 02:43 26.78874 -81.42706 24897 ft 397 kts 309°
2026-05-06 02:44 26.80598 -81.45109 24438 ft 395 kts 309°
2026-05-06 02:44 26.82322 -81.47512 24013 ft 394 kts 309°
2026-05-06 02:44 26.84043 -81.49913 23538 ft 393 kts 309°
2026-05-06 02:44 26.85752 -81.52298 23046 ft 392 kts 309°
2026-05-06 02:45 26.87459 -81.54680 22567 ft 389 kts 309°
2026-05-06 02:45 26.89148 -81.57040 22103 ft 387 kts 309°
2026-05-06 02:45 26.90831 -81.59392 21669 ft 385 kts 309°
2026-05-06 02:45 26.92486 -81.61707 21248 ft 383 kts 309°
2026-05-06 02:46 26.94152 -81.64038 20811 ft 381 kts 309°
2026-05-06 02:46 26.95814 -81.66364 20377 ft 380 kts 309°
2026-05-06 02:46 26.97463 -81.68673 19941 ft 378 kts 309°
2026-05-06 02:46 26.99085 -81.70947 19529 ft 377 kts 309°
2026-05-06 02:47 27.00725 -81.73247 19094 ft 376 kts 309°
2026-05-06 02:47 27.02360 -81.75540 18660 ft 375 kts 309°
2026-05-06 02:47 27.03988 -81.77826 18211 ft 374 kts 309°
2026-05-06 02:47 27.05613 -81.80108 17728 ft 373 kts 309°
2026-05-06 02:48 27.07301 -81.82315 17309 ft 370 kts 314°
2026-05-06 02:48 27.09120 -81.84345 16903 ft 368 kts 318°
2026-05-06 02:48 27.11065 -81.86198 16488 ft 365 kts 322°
2026-05-06 02:48 27.13083 -81.87928 16082 ft 363 kts 323°
2026-05-06 02:49 27.15068 -81.89605 15681 ft 361 kts 323°
2026-05-06 02:49 27.17106 -81.91323 15284 ft 359 kts 323°
2026-05-06 02:49 27.19071 -81.92983 14896 ft 358 kts 323°
2026-05-06 02:49 27.21065 -81.94668 14488 ft 357 kts 324°
2026-05-06 02:50 27.23051 -81.96349 14087 ft 355 kts 324°
2026-05-06 02:50 27.25028 -81.98023 13660 ft 354 kts 324°
2026-05-06 02:50 27.26992 -81.99685 13237 ft 352 kts 324°
2026-05-06 02:50 27.28922 -82.01320 12848 ft 349 kts 324°
2026-05-06 02:51 27.30855 -82.02959 12453 ft 347 kts 323°
2026-05-06 02:51 27.32774 -82.04587 12074 ft 344 kts 323°
2026-05-06 02:51 27.34680 -82.06206 11684 ft 341 kts 323°
2026-05-06 02:51 27.36572 -82.07818 11319 ft 339 kts 322°
2026-05-06 02:52 27.38402 -82.09482 10940 ft 337 kts 321°
2026-05-06 02:52 27.40195 -82.11147 10706 ft 328 kts 321°
2026-05-06 02:52 27.41915 -82.12750 10632 ft 314 kts 321°
2026-05-06 02:52 27.43562 -82.14291 10536 ft 301 kts 320°
2026-05-06 02:53 27.45082 -82.15850 10430 ft 289 kts 316°
2026-05-06 02:53 27.46483 -82.17374 10345 ft 277 kts 316°
2026-05-06 02:53 27.47839 -82.18857 10252 ft 266 kts 316°
2026-05-06 02:53 27.49155 -82.20296 10164 ft 260 kts 316°
2026-05-06 02:54 27.50440 -82.21702 10077 ft 256 kts 316°
2026-05-06 02:54 27.51713 -82.23096 9979 ft 255 kts 316°
2026-05-06 02:54 27.52992 -82.24494 9620 ft 256 kts 316°
2026-05-06 02:54 27.54267 -82.25888 9282 ft 256 kts 316°
2026-05-06 02:55 27.55533 -82.27274 8959 ft 255 kts 315°
2026-05-06 02:55 27.56808 -82.28669 8637 ft 255 kts 315°
2026-05-06 02:55 27.58082 -82.30065 8311 ft 255 kts 315°
2026-05-06 02:55 27.59356 -82.31462 7992 ft 255 kts 315°
2026-05-06 02:56 27.60632 -82.32861 7695 ft 256 kts 315°
2026-05-06 02:56 27.61911 -82.34265 7378 ft 256 kts 315°
2026-05-06 02:56 27.63191 -82.35669 7073 ft 257 kts 314°
2026-05-06 02:56 27.64477 -82.37081 6777 ft 258 kts 314°
2026-05-06 02:57 27.65768 -82.38498 6468 ft 259 kts 314°
2026-05-06 02:57 27.67042 -82.39899 6144 ft 259 kts 314°
2026-05-06 02:57 27.68315 -82.41344 5821 ft 259 kts 307°
2026-05-06 02:57 27.69130 -82.43136 5498 ft 257 kts 281°
2026-05-06 02:58 27.69292 -82.45128 5236 ft 254 kts 269°
2026-05-06 02:58 27.69294 -82.47117 4910 ft 254 kts 268°
2026-05-06 02:58 27.69271 -82.49160 4285 ft 266 kts 268°
2026-05-06 02:58 27.69267 -82.51281 3778 ft 272 kts 275°
2026-05-06 02:59 27.69877 -82.53305 3358 ft 274 kts 305°
2026-05-06 02:59 27.71257 -82.54744 3033 ft 270 kts 335°
2026-05-06 02:59 27.73049 -82.55231 3008 ft 267 kts
2026-05-06 02:59 27.74901 -82.55132 3014 ft 267 kts
2026-05-06 03:00 27.76756 -82.54962 3004 ft 267 kts
2026-05-06 03:00 27.78607 -82.54843 2982 ft 267 kts
2026-05-06 03:00 27.80466 -82.54767 2952 ft 267 kts
2026-05-06 03:00 27.82303 -82.54709 2688 ft 267 kts
2026-05-06 03:01 27.84145 -82.54651 2257 ft 261 kts
2026-05-06 03:01 27.85925 -82.54592 1959 ft 249 kts
2026-05-06 03:01 27.87618 -82.54535 1669 ft 238 kts
2026-05-06 03:01 27.89227 -82.54480 1374 ft 224 kts
2026-05-06 03:02 27.90723 -82.54429 1127 ft 207 kts
2026-05-06 03:02 27.92114 -82.54381 892 ft 192 kts
2026-05-06 03:02 27.93404 -82.54336 645 ft 179 kts
2026-05-06 03:02 27.94612 -82.54294 356 ft 168 kts
2026-05-06 03:03 27.95769 -82.54254 181 ft 166 kts
2026-05-06 03:03 27.96912 -82.54220 37 ft 156 kts
2026-05-06 03:03 27.97774 -82.54190 28 ft 94 kts
2026-05-06 03:03 27.98206 -82.54172 35 ft 32 kts
2026-05-06 03:04 27.98351 -82.54167 39 ft 19 kts
2026-05-06 03:04 27.98494 -82.54164 39 ft 22 kts
2026-05-06 03:04 27.98618 -82.54160 40 ft 12 kts
2026-05-06 03:04 27.98675 -82.54112 41 ft 11 kts 70°
2026-05-06 03:05 27.98657 -82.54039 40 ft 11 kts 146°
2026-05-06 03:05 27.98576 -82.54031 40 ft 13 kts 182°
2026-05-06 03:05 27.98510 -82.54035 40 ft 9 kts 183°
2026-05-06 03:05 27.98434 -82.54041 39 ft 13 kts 185°
2026-05-06 03:06 27.98334 -82.54046 38 ft 16 kts 182°
2026-05-06 03:06 27.98217 -82.54050 36 ft 17 kts 181°
2026-05-06 03:06 27.98103 -82.54054 33 ft 17 kts 182°
2026-05-06 03:06 27.97999 -82.54058 31 ft 12 kts 182°
2026-05-06 03:07 27.97915 -82.54062 30 ft 13 kts 182°
2026-05-06 03:07 27.97814 -82.54063 29 ft 15 kts 181°
2026-05-06 03:07 27.97727 -82.54065 28 ft 9 kts 181°
2026-05-06 03:07 27.97657 -82.54067 28 ft 11 kts 181°
2026-05-06 03:08 27.97620 -82.54067 29 ft 3 kts 166°
2026-05-06 03:08 27.97599 -82.54047 29 ft 4 kts 120°
2026-05-06 03:08 27.97596 -82.54018 30 ft 4 kts 84°
2026-05-06 03:08 27.97605 -82.53984 31 ft 5 kts 68°
2026-05-06 03:09 27.97613 -82.53946 32 ft 5 kts 77°
2026-05-06 03:09 27.97624 -82.53919 33 ft 3 kts 50°
2026-05-06 03:09 27.97644 -82.53895 33 ft 5 kts 46°
2026-05-06 03:09 27.97657 -82.53879 34 ft 2 kts 46°
2026-05-06 03:10 27.97662 -82.53874 34 ft 0 kts 46°